User: anonymous   Login
Location: Donald C. Martin Observatory
(38.3885°N, 82.3916°W)
Time: 01:58:32
(UTC-05:00)
Language:

Cosmos 1484 Rocket - Orbit

View from above orbital plane
View from above orbital plane
View from above satellite
View from above satellite

Ground track
Ground track

The orbit data is extracted from the following two-line orbital elements,

1 14208U 83075B   15063.04185293  .00003835  00000-0  24559-3 0  9992
2 14208 097.3957 095.4901 0042567 130.4296 230.0658 15.08377734721351
Epoch (UTC): 04 March 2015 01:00:16
Eccentricity: 0.0042567
inclination: 97.3957°
perigee height: 512 km
apogee height: 570 km
right ascension of ascending node: 95.4901°
argument of perigee: 130.4296°
revolutions per day: 15.08377734
mean anomaly at epoch: 230.0658°
orbit number at epoch: 72135

The dashed part of the orbit path shows where the satellite is in the earth's shadow,  

DLR